User: anonymous   Login
Location: Adrasan
(36.3319°N, 30.4314°E)
Time: 13:39:34
(UTC+00:00)
Language:

Cosmos 1553 Rocket - Orbit

View from above orbital plane
View from above orbital plane
View from above satellite
View from above satellite

Ground track
Ground track

The orbit data is extracted from the following two-line orbital elements,

1 14974U 84046B   24112.92181059  .00000279  00000-0  26523-3 0  9991
2 14974  82.9336  81.7933 0044360 201.0676 212.2209 13.77043553  6044
Epoch (UTC): 21 April 2024 22:07:24
Eccentricity: 0.0044360
inclination: 82.9336°
perigee height: 942 km
apogee height: 1007 km
right ascension of ascending node: 81.7933°
argument of perigee: 201.0676°
revolutions per day: 13.77043553
mean anomaly at epoch: 212.2209°
orbit number at epoch: 604

The dashed part of the orbit path shows where the satellite is in the earth's shadow,  

DLR